File timestamp: Thu Sep 15 01:00:00 2016, Internal temp: 17.4713134765625
1473901201, 0.0402959957718849, -0.139851748943329, 0.172236129641533, 32140, 31360, 23432, 46.8432807922363
1473901202.008, 0.0310242958366871, -0.139619559049606, 0.172285109758377, 32133, 31347, 23434, NaN
1473901202.008, 0.0207364466041327, -0.139577776193619, 0.172507837414742, 32130, 31345, 23442, NaN
1473901203.018, 0.00986934266984463, -0.139210477471352, 0.172705352306366, 32118, 31351, 23440, NaN
1473901204.016, 0.000289057497866452, -0.139155641198158, 0.173138409852982, 32113, 31349, 23438, NaN
1473901205.016, -0.00852791965007782, -0.139028519392014, 0.172949016094208, 32136, 31354, 23434, NaN
1473901206.016, -0.0166846681386232, -0.138550564646721, 0.17330527305603, 32137, 31364, 23427, NaN
1473901207.016, -0.0214907415211201, -0.13907952606678, 0.173403292894363, 32132, 31360, 23432, NaN
1473901208.016, -0.0257001146674156, -0.140162825584412, 0.173463672399521, 32126, 31367, 23440, NaN
1473901209.016, -0.0317921191453934, -0.139817237854004, 0.174663811922073, 32139, 31362, 23446, NaN
1473901210.016, -0.0393138863146305, -0.139375567436218, 0.175308033823967, 32112, 31353, 23444, NaN
1473901211.016, -0.0461449548602104, -0.140027016401291, 0.174922063946724, 32126, 31348, 23438, NaN
1473901212.016, -0.0513065047562122, -0.140275239944458, 0.175561234354973, 32124, 31359, 23431, NaN
1473901213.024, -0.0546043440699577, -0.140197187662125, 0.175449848175049, 32140, 31358, 23432, NaN
1473901214.024, -0.0557754561305046, -0.139667019248009, 0.17596048116684, 32125, 31359, 23438, NaN
1473901215.024, -0.0546144768595695, -0.139595404267311, 0.17626565694809, 32126, 31371, 23438, NaN
1473901216.024, -0.0514394715428352, -0.138966038823128, 0.176247671246529, 32135, 31351, 23442, NaN
1473901217.024, -0.0475699938833714, -0.138007268309593, 0.17695064842701, 32122, 31352, 23446, NaN
1473901218.024, -0.0464949384331703, -0.138753727078438, 0.177035972476006, 32131, 31368, 23458, NaN
1473901219.024, -0.0489955134689808, -0.138466224074364, 0.177717879414558, 32122, 31361, 23454, NaN
1473901220.024, -0.0532192178070545, -0.138331919908524, 0.178149715065956, 32145, 31359, 23429, NaN
1473901221.024, -0.0578836537897587, -0.138696685433388, 0.177850246429443, 32119, 31358, 23441, NaN
1473901222.024, -0.0574896261096001, -0.138476446270943, 0.177733987569809, 32121, 31359, 23426, NaN
1473901223.024, -0.0503960065543652, -0.138559356331825, 0.177971303462982, 32132, 31364, 23441, NaN
1473901224.024, -0.0407228991389275, -0.1381004601717, 0.178071439266205, 32129, 31357, 23439, NaN
1473901225.034, -0.029809357598424, -0.137672752141953, 0.178571537137032, 32135, 31349, 23435, NaN
1473901225.034, -0.0190519224852324, -0.136872962117195, 0.178388804197311, 32121, 31359, 23463, NaN
1473901226.042, -0.0132706612348557, -0.137307643890381, 0.177927911281586, 32123, 31352, 23439, NaN
1473901227.042, -0.0118474373593926, -0.137090891599655, 0.178081050515175, 32126, 31354, 23442, NaN
1473901228.042, -0.011348650790751, -0.13750995695591, 0.177189245820045, 32121, 31366, 23443, NaN
1473901229.042, -0.0109751047566533, -0.137294560670853, 0.177825272083282, 32107, 31360, 23448, NaN
1473901230.042, -0.0090914610773325, -0.137182667851448, 0.177796959877014, 32120, 31366, 23440, NaN
1473901231.042, -0.00454568117856979, -0.137305289506912, 0.178029984235764, 32124, 31353, 23429, NaN
1473901232.042, 0.00259823212400079, -0.13736866414547, 0.177904218435287, 32134, 31359, 23427, NaN
1473901233.042, 0.0103723732754588, -0.136939406394958, 0.17684406042099, 32129, 31351, 23438, NaN
1473901234.042, 0.0168796889483929, -0.13713601231575, 0.176778063178062, 32137, 31360, 23443, NaN
1473901235.042, 0.0208665151149035, -0.136939108371735, 0.176653861999512, 32140, 31366, 23441, NaN
1473901236.05, 0.0193214956671, -0.136733651161194, 0.177382305264473, 32133, 31357, 23447, NaN
1473901237.05, 0.0146956238895655, -0.136665493249893, 0.178249150514603, 32125, 31354, 23441, NaN
1473901238.05, 0.0106002809479833, -0.135928928852081, 0.178387448191643, 32120, 31353, 23447, NaN
1473901239.05, 0.00804746430367231, -0.135544821619987, 0.178532987833023, 32131, 31356, 23428, NaN
1473901239.05, 0.00787556823343039, -0.136497899889946, 0.179487958550453, 32128, 31359, 23438, NaN
1473901240.056, 0.0115017481148243, -0.136552199721336, 0.179826080799103, 32125, 31355, 23426, NaN
1473901241.056, 0.0167551264166832, -0.135475695133209, 0.180269718170166, 32139, 31348, 23433, NaN
1473901242.056, 0.0225955564528704, -0.135382860898972, 0.180453062057495, 32118, 31360, 23444, NaN
1473901243.056, 0.0268111955374479, -0.134909123182297, 0.181018441915512, 32121, 31348, 23438, NaN
1473901244.056, 0.028236236423254, -0.134868323802948, 0.181055665016174, 32127, 31362, 23440, NaN
1473901245.056, 0.0265276823192835, -0.134485885500908, 0.181749746203423, 32129, 31359, 23431, NaN
1473901246.064, 0.0222622230648994, -0.134770527482033, 0.182128235697746, 32146, 31358, 23431, NaN
1473901247.064, 0.0156976729631424, -0.135506391525269, 0.18287855386734, 32133, 31350, 23444, NaN
1473901248.064, 0.00852289982140064, -0.13563583791256, 0.183323577046394, 32129, 31353, 23437, NaN
1473901248.064, 0.00416309060528874, -0.135155200958252, 0.183426007628441, 32125, 31368, 23428, NaN
1473901249.07, 0.00160536461044103, -0.134715184569359, 0.183260530233383, 32123, 31363, 23433, NaN
1473901250.07, 0.000627714325673878, -0.133987873792648, 0.183391198515892, 32114, 31357, 23440, NaN
1473901251.07, 0.00188043236266822, -0.134426027536392, 0.183761417865753, 32119, 31365, 23438, NaN
1473901252.07, 0.00391858397051692, -0.13408425450325, 0.18374115228653, 32137, 31355, 23440, NaN
1473901252.07, 0.00538792880252004, -0.134995758533478, 0.184144854545593, 32130, 31355, 23437, NaN
1473901253.072, 0.00527305388823152, -0.134935930371284, 0.184112086892128, 32116, 31359, 23466, NaN
1473901254.072, 0.00475110020488501, -0.13542814552784, 0.184146553277969, 32129, 31352, 23427, NaN
1473901255.072, 0.00471022492274642, -0.135890796780586, 0.183964043855667, 32122, 31366, 23435, NaN
1473901256.08, 0.0049767792224884, -0.136397555470467, 0.18449741601944, 32123, 31360, 23440, 46.2347564697266
1473901256.08, 0.00523121887817979, -0.136637002229691, 0.184987261891365, 32124, 31359, 23449, NaN
1473901257.088, 0.00525472266599536, -0.136489525437355, 0.185209557414055, 32143, 31362, 23428, NaN
1473901258.088, 0.00504858605563641, -0.135869547724724, 0.184434071183205, 32130, 31359, 23437, NaN
1473901259.088, 0.00469412468373775, -0.136399582028389, 0.183409780263901, 32117, 31351, 23438, NaN
1473901260.088, 0.0046702460385859, -0.136540457606316, 0.183837309479713, 32127, 31361, 23430, NaN
1473901260.088, 0.00406982423737645, -0.136783242225647, 0.183079704642296, 32122, 31361, 23439, NaN
1473901261.092, 0.00271588610485196, -0.136587172746658, 0.183821633458138, 32135, 31358, 23435, NaN
1473901262.092, 0.00126964144874364, -0.136245131492615, 0.183886423707008, 32131, 31352, 23444, NaN
1473901263.092, -2.26290922000771e-06, -0.13680525124073, 0.183430254459381, 32116, 31356, 23447, NaN
1473901264.092, -0.000642398779746145, -0.136101916432381, 0.183637246489525, 32142, 31353, 23438, NaN
1473901265.092, -0.00219449517317116, -0.136825069785118, 0.183140158653259, 32132, 31360, 23447, NaN
1473901266.1, -0.0040861782617867, -0.136572390794754, 0.183488428592682, 32125, 31356, 23445, NaN
1473901267.1, -0.00517990021035075, -0.136200785636902, 0.183554440736771, 32119, 31360, 23449, NaN
1473901268.1, -0.00661199307069182, -0.13655823469162, 0.18380069732666, 32135, 31350, 23434, NaN
1473901269.1, -0.00783906225115061, -0.136724159121513, 0.183598324656487, 32118, 31360, 23449, NaN
1473901270.1, -0.00822912715375423, -0.137280181050301, 0.183734521269798, 32125, 31360, 23444, NaN
1473901271.1, -0.00877566076815128, -0.136774480342865, 0.184371456503868, 32126, 31350, 23444, NaN
1473901272.1, -0.00951376650482416, -0.136762231588364, 0.183990284800529, 32146, 31358, 23436, NaN
1473901273.1, -0.0109088746830821, -0.137135237455368, 0.183897584676743, 32112, 31365, 23433, NaN
1473901274.1, -0.0116701535880566, -0.136847510933876, 0.183836847543716, 32128, 31370, 23441, NaN
1473901275.1, -0.0120248822495341, -0.137011989951134, 0.183509185910225, 32131, 31357, 23443, NaN
1473901276.1, -0.0119016952812672, -0.137014776468277, 0.18297553062439, 32127, 31375, 23436, NaN
1473901277.1, -0.01086884457618, -0.137405276298523, 0.182988852262497, 32123, 31351, 23442, NaN
1473901278.108, -0.00956091936677694, -0.137894183397293, 0.182646855711937, 32125, 31364, 23445, NaN
1473901278.108, -0.00634507415816188, -0.137709245085716, 0.182805418968201, 32127, 31352, 23440, NaN
1473901279.116, -0.00301833800040185, -0.138722002506256, 0.18230502307415, 32123, 31355, 23448, NaN
1473901280.116, -0.000953030481468886, -0.139044851064682, 0.182881981134415, 32127, 31355, 23435, NaN
1473901281.116, -0.00057817721972242, -0.139416351914406, 0.18293459713459, 32132, 31370, 23440, NaN
1473901282.116, -0.00378940626978874, -0.139564320445061, 0.183482438325882, 32141, 31358, 23428, NaN
1473901283.116, -0.00696448795497417, -0.139924138784409, 0.18339815735817, 32126, 31350, 23448, NaN
1473901284.116, -0.00850334577262402, -0.13934925198555, 0.183027043938637, 32140, 31346, 23435, NaN
1473901285.116, -0.00895843934267759, -0.138769194483757, 0.182866439223289, 32126, 31348, 23442, NaN
1473901286.116, -0.00808261893689632, -0.139135032892227, 0.183313131332397, 32127, 31356, 23440, NaN
1473901287.116, -0.00666257971897721, -0.139079019427299, 0.183251559734344, 32126, 31363, 23442, NaN
1473901288.116, -0.0035435117315501, -0.139902144670486, 0.182901337742805, 32131, 31362, 23437, NaN
1473901289.126, 0.000265097332885489, -0.139903008937836, 0.183774873614311, 32133, 31354, 23443, NaN
1473901290.126, 0.00771167315542698, -0.139767572283745, 0.184263944625854, 32124, 31341, 23444, NaN
1473901291.126, 0.0195008758455515, -0.139499917626381, 0.184453293681145, 32122, 31352, 23441, NaN
1473901292.126, 0.0346720330417156, -0.139923647046089, 0.184772312641144, 32141, 31363, 23438, NaN
1473901292.126, 0.0537322349846363, -0.140710815787315, 0.183682814240456, 32117, 31357, 23444, NaN
1473901293.132, 0.0753643065690994, -0.141614109277725, 0.183703750371933, 32133, 31356, 23436, NaN
1473901294.132, 0.0989102348685265, -0.14130637049675, 0.18374639749527, 32144, 31356, 23437, NaN
1473901295.132, 0.123704761266708, -0.141084522008896, 0.182694539427757, 32131, 31364, 23443, NaN
1473901296.132, 0.147120714187622, -0.140799731016159, 0.182542130351067, 32130, 31354, 23446, NaN
1473901297.132, 0.168856292963028, -0.141319155693054, 0.182930365204811, 32120, 31358, 23433, NaN
1473901298.132, 0.188063159584999, -0.141754329204559, 0.183093339204788, 32136, 31366, 23436, NaN
1473901299.132, 0.202218517661095, -0.141546174883842, 0.182152152061462, 32138, 31354, 23430, NaN
1473901300.142, 0.212197184562683, -0.141442999243736, 0.182288721203804, 32138, 31355, 23442, NaN
1473901301.142, 0.219804540276527, -0.141626507043839, 0.182235479354858, 32116, 31368, 23442, NaN
1473901301.142, 0.226224154233932, -0.141438767313957, 0.180789917707443, 32116, 31356, 23429, NaN
1473901302.148, 0.23171578347683, -0.141125157475471, 0.181686729192734, 32136, 31348, 23447, NaN
1473901303.148, 0.235203146934509, -0.141569882631302, 0.181907907128334, 32131, 31358, 23437, NaN
1473901304.148, 0.235907733440399, -0.141360074281693, 0.182559490203857, 32131, 31355, 23441, NaN
1473901305.148, 0.233748257160187, -0.141624182462692, 0.182191386818886, 32127, 31350, 23436, NaN
1473901305.148, 0.228642404079437, -0.14161305129528, 0.181788697838783, 32132, 31354, 23434, NaN
1473901306.15, 0.219360083341599, -0.140584483742714, 0.181944459676743, 32135, 31348, 23451, NaN
1473901307.15, 0.205682128667831, -0.13996696472168, 0.182339712977409, 32131, 31353, 23458, NaN
1473901308.15, 0.191838905215263, -0.140547379851341, 0.182361483573914, 32123, 31361, 23450, NaN
1473901309.15, 0.178351983428001, -0.140403270721436, 0.18103700876236, 32132, 31369, 23437, NaN
1473901309.15, 0.166492477059364, -0.140920847654343, 0.179728448390961, 32124, 31366, 23441, 46.4734687805176
1473901310.158, 0.156389430165291, -0.141405373811722, 0.179369181394577, 32118, 31356, 23445, NaN
1473901311.158, 0.147920444607735, -0.140343382954597, 0.178828552365303, 32141, 31351, 23438, NaN
1473901312.158, 0.139537408947945, -0.139243945479393, 0.179226130247116, 32122, 31347, 23448, NaN
1473901313.158, 0.128739818930626, -0.138688161969185, 0.179878771305084, 32133, 31360, 23441, NaN
1473901313.158, 0.112696036696434, -0.138891130685806, 0.179645165801048, 32133, 31362, 23461, NaN
1473901314.162, 0.0921508371829987, -0.137074947357178, 0.179715737700462, 32123, 31361, 23455, NaN
1473901315.162, 0.0698602199554443, -0.136375144124031, 0.179752856492996, 32119, 31353, 23442, NaN
1473901316.162, 0.0514804124832153, -0.136312112212181, 0.180635720491409, 32122, 31355, 23434, NaN
1473901317.162, 0.038280438631773, -0.136912539601326, 0.181184709072113, 32129, 31359, 23436, NaN
1473901318.162, 0.0303096231073141, -0.137022659182549, 0.18119415640831, 32132, 31357, 23440, NaN
1473901319.142, 0.0247050262987614, -0.136576056480408, 0.181258738040924, 32122, 31351, 23437, NaN
1473901320.152, 0.019873334094882, -0.136909186840057, 0.181574404239655, 32142, 31338, 23436, NaN
1473901321.152, 0.0146583206951618, -0.136832341551781, 0.181220829486847, 32120, 31374, 23435, NaN
1473901322.152, 0.00619587954133749, -0.136488005518913, 0.181355968117714, 32139, 31355, 23445, NaN
1473901323.152, -0.00427110632881522, -0.137258738279343, 0.181201249361038, 32130, 31351, 23447, NaN
1473901324.152, -0.0138455843552947, -0.137916192412376, 0.181406542658806, 32133, 31359, 23452, NaN
1473901325.152, -0.0216703545302153, -0.137482047080994, 0.181087806820869, 32121, 31350, 23443, NaN
1473901326.152, -0.0272431280463934, -0.137674108147621, 0.180856332182884, 32110, 31351, 23457, NaN
1473901327.152, -0.0297761391848326, -0.138398170471191, 0.181149825453758, 32133, 31357, 23442, NaN
1473901328.152, -0.0285697225481272, -0.138759583234787, 0.181349530816078, 32124, 31367, 23435, NaN
1473901329.152, -0.025034312158823, -0.139706909656525, 0.181968823075294, 32128, 31358, 23432, NaN
1473901330.152, -0.0228022541850805, -0.140480533242226, 0.182117342948914, 32130, 31358, 23440, NaN
1473901331.16, -0.0212255883961916, -0.140628531575203, 0.182356417179108, 32116, 31354, 23450, NaN
1473901331.16, -0.018334349617362, -0.140660539269447, 0.182856664061546, 32122, 31355, 23444, NaN
1473901332.168, -0.016525300219655, -0.141420230269432, 0.181807830929756, 32119, 31372, 23451, NaN
1473901333.168, -0.015520597808063, -0.141236022114754, 0.181125521659851, 32136, 31361, 23440, NaN
1473901334.168, -0.0140611212700605, -0.141847878694534, 0.180108964443207, 32129, 31350, 23444, NaN
1473901335.168, -0.0123389894142747, -0.14160680770874, 0.179354056715965, 32120, 31347, 23432, NaN
1473901336.168, -0.0101909078657627, -0.141011998057365, 0.179047957062721, 32133, 31363, 23434, NaN
1473901337.168, -0.00932805612683296, -0.141882359981537, 0.178185388445854, 32122, 31356, 23451, NaN
1473901338.168, -0.0108231632038951, -0.142066940665245, 0.177680492401123, 32122, 31360, 23439, NaN
1473901339.168, -0.0130338855087757, -0.142361924052238, 0.177999049425125, 32132, 31365, 23449, NaN
1473901340.168, -0.0156280491501093, -0.142411053180695, 0.177889987826347, 32132, 31359, 23436, NaN
1473901341.168, -0.0173035580664873, -0.141592994332314, 0.177809745073318, 32124, 31350, 23433, NaN
1473901342.176, -0.017015477642417, -0.141719102859497, 0.178004488348961, 32138, 31361, 23430, NaN
1473901343.176, -0.0152032235637307, -0.141882672905922, 0.178062126040459, 32134, 31356, 23442, NaN
1473901344.176, -0.0130388764664531, -0.141786694526672, 0.177786365151405, 32119, 31360, 23440, NaN
1473901345.176, -0.011093171313405, -0.142421200871468, 0.176898628473282, 32122, 31355, 23440, NaN
1473901345.176, -0.00861103925853968, -0.142351791262627, 0.176170513033867, 32129, 31367, 23445, NaN
1473901346.182, -0.00532087404280901, -0.141938328742981, 0.175511047244072, 32142, 31356, 23420, NaN
1473901347.182, -0.000650618807412684, -0.141994848847389, 0.175417333841324, 32121, 31354, 23432, NaN
1473901348.182, 0.00543734477832913, -0.14107483625412, 0.176135644316673, 32136, 31368, 23435, NaN
1473901349.182, 0.00954361911863089, -0.141416653990746, 0.175494387745857, 32129, 31365, 23440, NaN
1473901350.182, 0.012694887816906, -0.141336038708687, 0.174738824367523, 32143, 31351, 23435, NaN
1473901351.182, 0.0141268391162157, -0.140918254852295, 0.174702703952789, 32127, 31343, 23429, NaN
1473901352.182, 0.0139564862474799, -0.141121625900269, 0.174458265304565, 32131, 31363, 23433, NaN
1473901353.19, 0.013441544957459, -0.140667885541916, 0.174871101975441, 32121, 31358, 23435, NaN
1473901354.19, 0.0120797026902437, -0.141171365976334, 0.174845486879349, 32131, 31357, 23434, NaN
1473901354.19, 0.00875948928296566, -0.141143709421158, 0.175041928887367, 32133, 31359, 23440, NaN
1473901355.198, 0.00574596738442779, -0.141536191105843, 0.176345601677895, 32135, 31363, 23435, NaN
1473901356.198, 0.00337040517479181, -0.14032581448555, 0.176532208919525, 32131, 31354, 23428, NaN
1473901357.198, 0.000734287197701633, -0.139493018388748, 0.176297828555107, 32129, 31355, 23435, NaN
1473901358.198, -0.00195805798284709, -0.139019280672073, 0.176124945282936, 32132, 31369, 23436, NaN
1473901358.198, -0.004671361297369, -0.138932272791862, 0.176050558686256, 32121, 31369, 23438, NaN
1473901359.202, -0.00702678086236119, -0.139066249132156, 0.176087245345116, 32130, 31360, 23441, NaN
1473901360.202, -0.00812812149524689, -0.139151155948639, 0.175316214561462, 32125, 31364, 23448, NaN
1473901361.202, -0.0101850451901555, -0.138734057545662, 0.174617111682892, 32136, 31356, 23427, NaN
1473901362.202, -0.0129147134721279, -0.138762548565865, 0.17526014149189, 32121, 31353, 23440, NaN
1473901362.202, -0.0152773167937994, -0.138809010386467, 0.175253495573997, 32130, 31357, 23443, NaN
1473901363.21, -0.0176519993692636, -0.137933820486069, 0.175146982073784, 32132, 31372, 23434, 48.6871109008789
1473901364.21, -0.0174351297318935, -0.137881547212601, 0.174466997385025, 32130, 31351, 23441, NaN
1473901365.21, -0.0150989778339863, -0.139032945036888, 0.173933118581772, 32115, 31364, 23449, NaN
1473901366.21, -0.0125891538336873, -0.139006450772285, 0.17419421672821, 32126, 31352, 23445, NaN
1473901366.21, -0.0103754987940192, -0.138809189200401, 0.17494735121727, 32133, 31346, 23432, NaN
1473901367.214, -0.00866609532386065, -0.138514325022697, 0.173674091696739, 32128, 31365, 23436, NaN
1473901368.214, -0.00796856544911861, -0.137505918741226, 0.173273578286171, 32128, 31356, 23434, NaN
1473901369.214, -0.0078450059518218, -0.138270825147629, 0.172975987195969, 32127, 31368, 23440, NaN
1473901370.214, -0.00809764955192804, -0.139740481972694, 0.172915369272232, 32139, 31349, 23432, NaN
1473901370.214, -0.0066706077195704, -0.139146074652672, 0.17342783510685, 32127, 31357, 23427, NaN
1473901371.214, -0.00315028801560402, -0.138813346624374, 0.173269763588905, 32127, 31364, 23430, NaN
1473901372.222, 0.00191690353676677, -0.138543799519539, 0.172763094305992, 32127, 31355, 23431, NaN
1473901373.222, 0.00736374780535698, -0.138356417417526, 0.172782510519028, 32127, 31356, 23448, NaN
1473901374.222, 0.0114864967763424, -0.138146534562111, 0.173276335000992, 32124, 31358, 23439, NaN
1473901375.222, 0.0146578392013907, -0.137793079018593, 0.173805847764015, 32129, 31350, 23444, NaN
1473901376.222, 0.0154341896995902, -0.138774484395981, 0.173047319054604, 32133, 31352, 23434, NaN
1473901377.222, 0.0129027022048831, -0.139127612113953, 0.172784373164177, 32136, 31365, 23440, NaN
1473901378.222, 0.0101780667901039, -0.139935702085495, 0.173293873667717, 32142, 31349, 23430, NaN
1473901379.222, 0.0095222657546401, -0.140278503298759, 0.173447385430336, 32129, 31356, 23445, NaN
1473901380.222, 0.0114171002060175, -0.14038647711277, 0.172080457210541, 32132, 31371, 23437, NaN
1473901381.222, 0.0147232376039028, -0.14049719274044, 0.171705409884453, 32135, 31338, 23440, NaN
1473901382.222, 0.0174034833908081, -0.14117494225502, 0.172465428709984, 32127, 31368, 23435, NaN
1473901383.222, 0.0183175802230835, -0.141643032431602, 0.171846985816956, 32131, 31358, 23445, NaN
1473901383.222, 0.0165828038007021, -0.141115829348564, 0.171562641859055, 32123, 31358, 23443, NaN
1473901384.23, 0.0135001419112086, -0.141068056225777, 0.171074137091637, 32135, 31352, 23436, NaN
1473901385.23, 0.0100598474964499, -0.141708552837372, 0.171031162142754, 32139, 31354, 23437, NaN
1473901386.23, 0.00623811082914472, -0.141897976398468, 0.171249106526375, 32130, 31361, 23443, NaN
1473901387.23, 0.00153671612497419, -0.141512244939804, 0.171471863985062, 32129, 31349, 23443, NaN
1473901388.23, -0.00149656622670591, -0.141181275248528, 0.171548649668694, 32132, 31351, 23439, NaN
1473901389.23, -0.00275447033345699, -0.140487596392632, 0.170568630099297, 32118, 31354, 23438, NaN
1473901390.23, -0.00368218729272485, -0.14024356007576, 0.170662760734558, 32123, 31356, 23436, NaN
1473901391.23, -0.00342315016314387, -0.140274122357368, 0.17017437517643, 32129, 31343, 23426, NaN
1473901392.23, -0.00381888472475111, -0.139891788363457, 0.169606640934944, 32124, 31349, 23450, NaN
1473901393.23, -0.00475802458822727, -0.139590576291084, 0.16905365884304, 32145, 31355, 23416, NaN
1473901394.23, -0.00478950794786215, -0.139187932014465, 0.170097559690475, 32142, 31357, 23434, NaN
1473901395.238, -0.00490267900750041, -0.139611065387726, 0.171083718538284, 32137, 31364, 23439, NaN
1473901396.238, -0.00517148058861494, -0.140327170491219, 0.171498388051987, 32133, 31361, 23431, NaN
1473901397.238, -0.00457973638549447, -0.140582948923111, 0.171476036310196, 32123, 31365, 23441, NaN
1473901397.238, -0.00408607814460993, -0.140977010130882, 0.171402052044868, 32126, 31353, 23448, NaN
1473901398.244, -0.0030830588657409, -0.141089394688606, 0.17168527841568, 32119, 31358, 23456, NaN
1473901399.244, -0.00213372288271785, -0.141122475266457, 0.171497523784637, 32124, 31359, 23437, NaN
1473901400.244, -0.00107959588058293, -0.140978381037712, 0.17220938205719, 32121, 31370, 23441, NaN
1473901401.244, -1.69563681993168e-05, -0.142200633883476, 0.17218904197216, 32123, 31355, 23441, NaN
1473901402.244, 0.000643090170342475, -0.142660468816757, 0.172893673181534, 32124, 31355, 23444, NaN
1473901403.244, 0.00126116164028645, -0.142712339758873, 0.172614336013794, 32129, 31360, 23432, NaN
1473901404.244, 0.00288269086740911, -0.143284052610397, 0.171789884567261, 32123, 31354, 23437, NaN
1473901405.244, 0.0044648670591414, -0.143863186240196, 0.171568349003792, 32128, 31361, 23446, NaN
1473901406.252, 0.00523506896570325, -0.143769487738609, 0.170972660183907, 32131, 31348, 23437, NaN
1473901406.252, 0.00679226964712143, -0.143668293952942, 0.170508116483688, 32132, 31361, 23439, NaN
1473901407.26, 0.00797004066407681, -0.14393524825573, 0.169544517993927, 32132, 31345, 23433, NaN
1473901408.26, 0.00859720353037119, -0.144044205546379, 0.169056639075279, 32123, 31358, 23444, NaN
1473901409.26, 0.00799561571329832, -0.144063040614128, 0.169544547796249, 32120, 31348, 23451, NaN
1473901410.26, 0.00384881789796054, -0.143856942653656, 0.169662937521935, 32132, 31351, 23438, NaN
1473901410.26, -0.00219458667561412, -0.145059034228325, 0.169009327888489, 32130, 31359, 23447, NaN
1473901411.264, -0.00619422784075141, -0.145345851778984, 0.169318050146103, 32126, 31355, 23428, NaN
1473901412.264, -0.00734716700389981, -0.144865348935127, 0.169408649206161, 32128, 31366, 23438, NaN
1473901413.264, -0.00670565804466605, -0.145304590463638, 0.169975146651268, 32139, 31342, 23434, NaN
1473901414.264, -0.00337341823615134, -0.146354302763939, 0.169796049594879, 32128, 31351, 23432, NaN